Showing default

COSMOS 2132, 21107

Orbit data source: Space-Track

COSMOS 2132, 21107 is a payload satellite owned by UNKS RF (CIS) in LEO that was launched on Tue, 12 Feb 1991 UTC via a KOSMOS 11K65M launch vehicle from the Plesetsk Missile And Space Complex (PKMTR). Payload-class satellites include a variety of spacecraft equipped with specific instruments for various scientific and technological missions. These include communications satellites like Starlink; space stations such as the ISS; scientific satellites like the Hubble; Earth observation satellites from companies like Planet Labs, Umbra, and HawkEye 360; GPS; miniature CubeSats for education and research; and military/defense satellites.

Loading next visibility...
Identifier
21107, 1991-009H
Orbit
LEO
Country
Flag of CISCIS
Related business
Manufacturer
NPO PM
Mission
Defense Communications
Bus & Motor
STRELA-1 11F625, Unknown motor
Mass
60 kg wet, 60 kg dry
Launch date (UTC)
1991-02-12 (35 years ago)
Launch vehicle
KOSMOS 11K65M
Launch site
Plesetsk Missile And Space Complex (PKMTR)
Object type
Payload
Rocket body
Debris
Shape & HBR
Sphere, 0.4 m
Radar Cross Section
0.588 m², Medium (>0.1 m² and < 1m²)

Expand to show TLE details & history
Last TLE update: 2 days ago

TLE from 2 days ago
0 COSMOS 2132
1 21107U 91009H   26171.36611034 -.00000003  00000-0  79990-4 0  9993
2 21107  74.0285 138.6024 0034649 296.2442 218.0600 12.55502618620198
Epoch: 2026-06-20T08:47Z
TLE epoch observation values (Epoch: 2026-06-20T08:47:11.933Z)
Latitude
24.90021°
Longitude
-89.37596°
Altitude
1,465.461 km
Speed
7.122 km/s
True Right ascension
20h 44m 01s
True Declination
24° 46' 51"
Sunlit
Object was in daylight at epoch
Visualization orbit readout
Latitude
Unknown
Longitude
Unknown
Altitude
Unknown
Speed
Unknown
Apparent Right ascension
Unknown
Apparent Declination
Unknown
Sunlit
N/A
Visualization observer readout
Local Sidereal Time
02:30:10
Azimuth
Unknown
Elevation
Unknown
Doppler factor
Unknown
Orbital elements
Apogee altitude
1,466.479 km
Perigee altitude
1,412.305 km
Semi-major axis
7,817.529 km
Eccentricity
0.00346
Inclination
74.0285°
RAAN
138.6024°
Arg. of periapsis
296.2442°
True anomaly
217.81606°
Mean anomaly
218.06°
Eccentric anomaly
217.93795°
Mean motion
3.14007 °/min
Orbital period
114.65 mins
BSTAR
0.00007999
Loading maneuver chart data...
Computing Atmospheric mass density...
Loading historical data...
Loading historical data...
Loading historical data...
Loading historical data...
Loading historical data...
Loading historical data...
Loading historical data...

Documentation

Showing up to 5 results
|